Miscellaneous Local Product
Issued by NWS North Platte, NE

Home | Current Version | Previous Version | Text Only | Print | Product List | Glossary On
Versions: 1 2 3 4 5 6 7 8 9 10 11 12 13 14 15 16 17 18 19 20 21 22 23 24 25 26 27 28 29 30 31 32 33 34 35 36 37 38 39 40 41 42 43 44 45 46 47 48 49 50
000
AXUS43 KLBF 301310
MISLBF


WESTERN AND NORTH CENTRAL NEBRASKA HOURLY WEATHER ROUNDUP
NATIONAL WEATHER SERVICE NORTH PLATTE NE
800 AM CDT MON MAY 30 2016

NOTE: "FAIR" INDICATES FEW OR NO CLOUDS BELOW 12,000 FEET WITH NO
SIGNIFICANT WEATHER AND/OR OBSTRUCTIONS TO VISIBILITY.

NOTE: STATIONS NOT REPORTING VARIABLES SUCH AS SKY/WEATHER OR
PRESSURE ARE PROVIDED BY RAWS AND APRS NETWORKS AND ARE NOT UNDER
NATIONAL WEATHER SERVICE QUALITY CONTROL.

...OBSERVATIONS IN AND NEAR THE EASTERN PANHANDLE OF NEBRASKA...

CITY           SKY/WX    TMP DP  RH WIND       PRES   REMARKS
PINE RIDGE     CLOUDY    58  50  75 SW8       29.93S
CHADRON        CLOUDY    58  51  78 CALM      29.93S
ALLIANCE       MOSUNNY   54  50  86 S5        29.97S
SIDNEY         SUNNY     55  50  83 SW8       30.00F
CRESCENT LAKE    N/A     58  50  76 S6          N/A
BIG SPRINGS      N/A     57  51  81 SW9         N/A
$$

...OBSERVATIONS IN NORTHERN NEBRASKA AND FAR SOUTHERN SOUTH DAKOTA...

CITY           SKY/WX    TMP DP  RH WIND       PRES   REMARKS
WINNER         FAIR      63  55  75 SE12      29.96F
VALENTINE      MOSUNNY   62  54  74 E5        29.96F
THEDFORD       PTSUNNY   61  54  78 SE7       30.00R
AINSWORTH      MOSUNNY   61  55  79 E3        29.99R
O`NEILL        MOSUNNY   64  58  80 SE5       30.01S
ORD            CLOUDY    62  54  74 S6        30.01R
BROKEN BOW     MOSUNNY   59  55  87 SE7       30.02R
BUTTE            N/A     61  56  84 S3          N/A
CHAMBERS         N/A     64  59  83 E3          N/A
EWING            N/A     62  57  85 SE3         N/A
$$

...OBSERVATIONS IN SOUTHWEST NEBRASKA AND FAR NORTHEAST COLORADO...

CITY           SKY/WX    TMP DP  RH WIND       PRES   REMARKS
WRAY           FAIR      54  50  87 W7        30.02R
HOLYOKE        FAIR      59  52  77 W10       30.01S
IMPERIAL       SUNNY     59  51  75 W12       29.99R
OGALLALA       SUNNY     60  51  72 W5        29.99S
NORTH PLATTE   MOSUNNY   59  55  87 SE7       30.02R
MCCOOK         SUNNY     60  53  77 SE3       30.00S
LEXINGTON      CLOUDY    59  55  85 CALM      30.02S
PAXTON           N/A     59  52  77 CALM        N/A
STAPLETON        N/A     58  54  86 CALM        N/A
GOTHENBURG       N/A     58  52  80 CALM        N/A
CALLAWAY         N/A     56  52  88 CALM        N/A
$$

...OBSERVATIONS IN CENTRAL LINCOLN COUNTY AREA...

CITY           SKY/WX    TMP DP  RH WIND       PRES   REMARKS
N.P. AIRPORT   MOSUNNY   59  55  87 SE7       30.02R
N.P. DOWNTOWN    N/A     63  55  76 CALM        N/A
N.P. HILLCREST   N/A     60  55  83 SE9         N/A
$$

...SOME OBSERVATIONS FROM AROUND THE REGION...

CITY           SKY/WX    TMP DP  RH WIND       PRES   REMARKS
DENVER         MOSUNNY   54  41  61 S12       30.05S
LARAMIE        CLOUDY    45  38  76 CALM      30.13F
CHEYENNE       SUNNY     52  41  66 W9        30.07F
SCOTTSBLUFF    SUNNY     55  50  83 N3        29.98S
RAPID CITY     MOSUNNY   56  52  86 SE3       29.89F
BISMARCK       SUNNY     57  53  86 CALM      29.93F
PIERRE         CLOUDY    62  57  83 SE13      29.90F
SIOUX FALLS    CLOUDY    66  53  63 SE8       29.99S
OMAHA          MOSUNNY   69  63  81 S6        30.02S
GRAND ISLAND   CLOUDY    63  55  75 SE3       30.01S
KANSAS CITY    PTSUNNY   71  65  81 SE5       30.06R
WICHITA        CLOUDY    65  58  78 SW5       30.03S
OKLAHOMA CITY  CLOUDY    67  65  93 CALM      30.03S
DALLAS         CLOUDY    70  65  84 N9        30.02R
AMARILLO       SUNNY     55  52  89 W3        30.13F
DODGE CITY     SUNNY     58  53  84 S5        30.04S
HAYS           MOSUNNY   59  48  67 S5        30.03R
GOODLAND       SUNNY     56  50  80 S9        30.00S
$$




USA.gov is the U.S. government's official web portal to all federal, state and local government web resources and services.